When you browse on this site, cookies collect data to enhance your experience and personalize the content and advertising you see.
Visit our Privacy Policy to learn more. By continuing to use the site, you agree to this use of cookies and data.
  • In Belgium
  • List of Countries
  • For 7 days
  • Water Temperature
  • Satellite Maps
  • Weather Map
  • Weather Widgets
  • user-avatar
    Login

    Hourly Weather Bolehov

    Today, 19 February, Tuesday

    Time Temperature Precipitation Wind Pressure Humidity
    00:00 +3°C° 0 mm 2 mps 732 mmHg 86%
    01:00 +2°C° 0 mm 2 mps 732 mmHg 85%
    02:00 +2°C° 0 mm 2 mps 732 mmHg 84%
    03:00 +2°C° 0 mm 2 mps 732 mmHg 83%
    04:00 +2°C° 0 mm 2 mps 731 mmHg 82%
    05:00 +2°C° 0 mm 2 mps 731 mmHg 81%
    06:00 +2°C° 0 mm 2 mps 731 mmHg 80%
    07:00 +2°C° 0 mm 2 mps 731 mmHg 78%
    08:00 +2°C° 0 mm 2 mps 731 mmHg 77%
    09:00 +4°C° 0 mm 2 mps 731 mmHg 70%
    10:00 +6°C° 0 mm 2 mps 730 mmHg 62%
    11:00 +9°C° 0 mm 2 mps 730 mmHg 55%
    12:00 +10°C° 0 mm 2 mps 730 mmHg 53%
    13:00 +11°C° 0 mm 3 mps 730 mmHg 50%
    14:00 +11°C° 0 mm 3 mps 730 mmHg 48%
    15:00 +10°C° 0 mm 3 mps 729 mmHg 53%
    16:00 +9°C° 0 mm 2 mps 729 mmHg 58%
    17:00 +8°C° 0 mm 2 mps 728 mmHg 62%
    18:00 +7°C° 0 mm 2 mps 728 mmHg 66%
    19:00 +4°C° 0 mm 3 mps 728 mmHg 69%
    20:00 +3°C° 0 mm 3 mps 728 mmHg 73%
    21:00 +3°C° 0 mm 3 mps 728 mmHg 73%
    22:00 +3°C° 0 mm 3 mps 728 mmHg 73%
    23:00 +3°C° 0 mm 3 mps 728 mmHg 74%

    Tomorrow, 20 February, Wednesday

    Time Temperature Precipitation Wind Pressure Humidity
    00:00 +3°C° 0 mm 3 mps 728 mmHg 76%
    01:00 +3°C° 0 mm 3 mps 728 mmHg 78%
    02:00 +3°C° 0 mm 3 mps 728 mmHg 80%
    03:00 +2°C° 0 mm 3 mps 728 mmHg 81%
    04:00 +2°C° 0 mm 3 mps 728 mmHg 83%
    05:00 +2°C° 0 mm 3 mps 728 mmHg 84%
    06:00 +2°C° 0.2 mm 3 mps 728 mmHg 84%
    07:00 +2°C° 0.2 mm 3 mps 728 mmHg 84%
    08:00 +3°C° 0.2 mm 3 mps 729 mmHg 84%
    09:00 +4°C° 0.1 mm 3 mps 729 mmHg 80%
    10:00 +5°C° 0.1 mm 4 mps 729 mmHg 75%
    11:00 +5°C° 0.1 mm 5 mps 729 mmHg 71%
    12:00 +5°C° 0.1 mm 5 mps 729 mmHg 70%
    13:00 +5°C° 0.1 mm 5 mps 729 mmHg 69%
    14:00 +4°C° 0.1 mm 6 mps 729 mmHg 69%
    15:00 +5°C° 0.1 mm 5 mps 730 mmHg 69%
    16:00 +5°C° 0.1 mm 5 mps 730 mmHg 70%
    17:00 +3°C° 0.1 mm 5 mps 730 mmHg 71%
    18:00 +3°C° 0 mm 4 mps 730 mmHg 74%
    19:00 +1°C° 0 mm 4 mps 731 mmHg 78%
    20:00 +1°C° 0 mm 3 mps 731 mmHg 82%
    21:00 +1°C° 0 mm 3 mps 731 mmHg 83%
    22:00 +1°C° 0 mm 3 mps 731 mmHg 83%
    23:00 +1°C° 0 mm 3 mps 732 mmHg 84%

    Day after tomorrow, 21 February, Thursday

    Time Temperature Precipitation Wind Pressure Humidity
    00:00 +1°C° 0 mm 3 mps 732 mmHg 84%
    01:00 +1°C° 0 mm 3 mps 732 mmHg 85%
    02:00 +1°C° 0 mm 3 mps 732 mmHg 85%
    03:00 +1°C° 0 mm 3 mps 732 mmHg 85%
    04:00 +1°C° 0 mm 3 mps 732 mmHg 85%
    05:00 +1°C° 0 mm 3 mps 732 mmHg 84%
    06:00 +1°C° 0 mm 3 mps 732 mmHg 84%
    07:00 +2°C° 0 mm 3 mps 732 mmHg 83%
    08:00 +2°C° 0 mm 3 mps 732 mmHg 83%
    09:00 +3°C° 0.1 mm 4 mps 732 mmHg 80%
    10:00 +3°C° 0.1 mm 4 mps 732 mmHg 76%
    11:00 +3°C° 0.1 mm 5 mps 732 mmHg 73%
    12:00 +5°C° 0 mm 5 mps 732 mmHg 71%
    13:00 +4°C° 0 mm 6 mps 732 mmHg 69%
    14:00 +5°C° 0 mm 6 mps 732 mmHg 67%
    15:00 +4°C° 0 mm 6 mps 731 mmHg 69%
    16:00 +5°C° 0 mm 5 mps 731 mmHg 70%
    17:00 +3°C° 0 mm 5 mps 730 mmHg 72%
    18:00 +3°C° 0.2 mm 5 mps 730 mmHg 74%
    19:00 +3°C° 0.2 mm 5 mps 730 mmHg 76%
    20:00 +2°C° 0.2 mm 5 mps 730 mmHg 78%
    21:00 +3°C° 0.2 mm 4 mps 730 mmHg 80%
    22:00 +3°C° 0.2 mm 4 mps 730 mmHg 81%
    23:00 +3°C° 0.2 mm 4 mps 730 mmHg 83%

    22 February, Friday

    Time Temperature Precipitation Wind Pressure Humidity
    00:00 +3°C° 0.5 mm 4 mps 730 mmHg 85%
    01:00 +3°C° 0.5 mm 4 mps 730 mmHg 86%
    02:00 +3°C° 0.5 mm 4 mps 730 mmHg 88%
    03:00 +3°C° 0.7 mm 4 mps 730 mmHg 90%
    04:00 +3°C° 0.7 mm 3 mps 730 mmHg 91%
    05:00 +3°C° 0.7 mm 3 mps 730 mmHg 93%
    06:00 +1°C° 1 mm 4 mps 730 mmHg 93%
    07:00 0°C° 1 mm 5 mps 731 mmHg 93%
    08:00 -3°C° 1 mm 6 mps 732 mmHg 93%
    09:00 -3°C° 0.5 mm 6 mps 733 mmHg 90%
    10:00 -4°C° 0.5 mm 5 mps 734 mmHg 86%
    11:00 -5°C° 0.5 mm 5 mps 735 mmHg 83%
    12:00 -5°C° 0.1 mm 5 mps 736 mmHg 80%
    13:00 -5°C° 0.1 mm 6 mps 736 mmHg 76%
    14:00 -5°C° 0.1 mm 6 mps 737 mmHg 73%
    15:00 -5°C° 0.1 mm 6 mps 738 mmHg 73%
    16:00 -6°C° 0.1 mm 6 mps 738 mmHg 72%
    17:00 -6°C° 0.1 mm 6 mps 739 mmHg 71%
    18:00 -7°C° 0 mm 5 mps 740 mmHg 72%
    19:00 -8°C° 0 mm 4 mps 741 mmHg 73%
    20:00 -8°C° 0 mm 4 mps 742 mmHg 73%
    21:00 -8°C° 0 mm 3 mps 742 mmHg 72%
    22:00 -8°C° 0 mm 3 mps 743 mmHg 71%
    23:00 -8°C° 0 mm 3 mps 743 mmHg 70%

    23 February, Saturday

    Time Temperature Precipitation Wind Pressure Humidity
    00:00 -8°C° 0 mm 3 mps 744 mmHg 69%
    01:00 -8°C° 0 mm 3 mps 744 mmHg 68%
    02:00 -8°C° 0 mm 3 mps 744 mmHg 67%
    03:00 -7°C° 0 mm 2 mps 744 mmHg 68%
    04:00 -7°C° 0 mm 2 mps 744 mmHg 68%
    05:00 -7°C° 0 mm 2 mps 743 mmHg 68%
    06:00 -7°C° 0 mm 2 mps 744 mmHg 68%
    07:00 -7°C° 0 mm 2 mps 744 mmHg 68%
    08:00 -7°C° 0 mm 2 mps 745 mmHg 67%
    09:00 -6°C° 0 mm 2 mps 744 mmHg 60%
    10:00 -5°C° 0 mm 2 mps 744 mmHg 52%
    11:00 -3°C° 0 mm 2 mps 744 mmHg 45%
    12:00 -3°C° 0 mm 2 mps 744 mmHg 43%
    13:00 -2°C° 0 mm 2 mps 743 mmHg 41%
    14:00 -2°C° 0 mm 2 mps 743 mmHg 40%
    15:00 -2°C° 0 mm 2 mps 742 mmHg 43%
    16:00 -2°C° 0 mm 2 mps 742 mmHg 46%
    17:00 -3°C° 0 mm 2 mps 741 mmHg 49%
    18:00 -3°C° 0 mm 2 mps 741 mmHg 56%
    19:00 -4°C° 0 mm 2 mps 741 mmHg 63%
    20:00 -4°C° 0 mm 2 mps 741 mmHg 70%
    21:00 -4°C° 0 mm 2 mps 741 mmHg 72%
    22:00 -4°C° 0 mm 2 mps 740 mmHg 73%
    23:00 -4°C° 0 mm 2 mps 740 mmHg 75%

    24 February, Sunday

    Time Temperature Precipitation Wind Pressure Humidity
    00:00 -4°C° 0 mm 2 mps 740 mmHg 75%
    01:00 -5°C° 0 mm 2 mps 740 mmHg 75%
    02:00 -3°C° 0 mm 1 mps 740 mmHg 75%
    03:00 -5°C° 0 mm 2 mps 739 mmHg 75%
    04:00 -5°C° 0 mm 2 mps 739 mmHg 75%
    05:00 -5°C° 0 mm 2 mps 739 mmHg 74%
    06:00 -5°C° 0 mm 2 mps 739 mmHg 75%
    07:00 -4°C° 0 mm 2 mps 739 mmHg 76%
    08:00 -4°C° 0 mm 2 mps 739 mmHg 76%
    09:00 -3°C° 0 mm 2 mps 739 mmHg 76%
    10:00 -1°C° 0 mm 2 mps 739 mmHg 75%
    11:00 +1°C° 0 mm 2 mps 740 mmHg 75%
    12:00 +2°C° 0 mm 2 mps 739 mmHg 76%
    13:00 +2°C° 0 mm 2 mps 739 mmHg 77%
    14:00 +2°C° 0 mm 3 mps 738 mmHg 79%
    15:00 +3°C° 0 mm 2 mps 738 mmHg 82%
    16:00 +3°C° 0 mm 2 mps 737 mmHg 86%
    17:00 +3°C° 0 mm 2 mps 737 mmHg 89%
    18:00 +2°C° 0 mm 2 mps 737 mmHg 91%
    19:00 +2°C° 0 mm 2 mps 736 mmHg 92%
    20:00 +2°C° 0 mm 2 mps 736 mmHg 93%
    21:00 +2°C° 0 mm 2 mps 735 mmHg 93%
    22:00 +2°C° 0 mm 2 mps 735 mmHg 93%
    23:00 +2°C° 0 mm 2 mps 734 mmHg 93%
    Show more